Location: NJAA Observatory
(40.6819°N, 74.8979°W)
Time: 18:18:05
(UTC-05:00)

Transit 2A Rocket - Visible Passes

Search period start: 24 January 2017 00:00
Search period end: 03 February 2017 00:00
Orbit: 593 x 911 km, 66.7° (Epoch: 24 January)

Date Brightness Start Highest point End Pass type
(mag) Time Alt. Az. Time Alt. Az. Time Alt. Az.
24 Jan 5.4 17:48:09 10° NW 17:52:21 53° WSW 17:56:35 10° SSE visible
25 Jan 8.4 06:42:03 10° SE 06:44:51 14° ESE 06:47:31 10° ENE visible
26 Jan 7.8 18:06:56 10° WNW 18:09:50 18° WSW 18:12:44 10° SSW visible
28 Jan 7.9 06:16:12 10° SSE 06:20:08 21° ESE 06:23:52 10° ENE visible
29 Jan 8.4 05:36:20 10° SE 05:38:02 11° ESE 05:39:41 10° E visible
29 Jan 8.5 17:43:47 10° W 17:45:04 11° WSW 17:46:22 10° WSW visible
30 Jan 5.8 06:32:32 10° SSW 06:37:43 55° ESE 06:42:29 10° NE visible
31 Jan 7.0 05:50:51 10° S 05:55:28 31° ESE 05:59:46 10° NE visible
01 Feb 7.8 05:09:54 10° SSE 05:13:18 17° ESE 05:16:32 10° ENE visible
02 Feb 5.0 06:07:51 10° SSW 06:13:08 81° ESE 06:17:58 10° NNE visible
